Location: Brantley
(31.5822°N, 86.2569°W)
Time: 07:24:32
(UTC+00:00)

Transit 2A Rocket - Pass Details

Date: 16 February 2026
Orbit: 583 x 900 km, 66.7° (Epoch: 8 March)

Event Time Altitude Azimuth Distance (km) Brightness Sun altitude
Rises 09:02:08 0° 309° (NW) 3,222 - -43.8°
Reaches altitude 10° 09:06:24 10° 276° (W) 2,200 - -42.9°
Maximum altitude 09:07:53 11° 259° (WSW) 2,081 - -42.6°
Drops below altitude 10° 09:09:20 10° 241° (WSW) 2,134 - -42.3°
Sets 09:13:16 0° 207° (SSW) 2,961 - -41.5°
